Location: Unspecified
(51.0950°N, 12.9690°E)
Time: 22:41:23
(UTC+00:00)

Cosmos 2278 Rocket - Pass Details

Date: 28 October 2021
Orbit: 841 x 845 km, 71.0° (Epoch: 01 December)

Event Time Altitude Azimuth Distance (km) Brightness Sun altitude
Rises 16:45:30 0° 331° (NNW) 3,417 5.6 -9.4°
Reaches altitude 10° 16:48:28 10° 345° (NNW) 2,479 4.7 -9.8°
Maximum altitude 16:52:59 24° 38° (NE) 1,700 3.4 -10.5°
Enters shadow 16:56:22 15° 82° (E) 2,164 3.6 -11.1°
